TimeEDT,TemperatureF,Dew PointF,Humidity,Sea Level PressureIn,VisibilityMPH,Wind Direction,Wind SpeedMPH,Gust SpeedMPH,PrecipitationIn,Events,Conditions,WindDirDegrees,DateUTC
12:15 AM,69.8,51.8,53,29.92,10.0,SW,10.4,-,N/A,,Clear,220,2013-04-10 04:15:00
12:35 AM,69.8,51.8,53,29.91,10.0,SSW,10.4,-,N/A,,Clear,210,2013-04-10 04:35:00
12:55 AM,69.8,51.8,53,29.90,10.0,SSW,10.4,-,N/A,,Clear,210,2013-04-10 04:55:00
1:15 AM,69.8,51.8,53,29.89,10.0,SSW,8.1,18.4,N/A,,Clear,210,2013-04-10 05:15:00
1:35 AM,69.8,51.8,53,29.88,10.0,SSW,9.2,16.1,N/A,,Clear,200,2013-04-10 05:35:00
1:55 AM,68.0,51.8,56,29.87,10.0,SSW,9.2,16.1,N/A,,Clear,210,2013-04-10 05:55:00
2:15 AM,68.0,51.8,56,29.87,10.0,SW,10.4,-,N/A,,Clear,230,2013-04-10 06:15:00
2:35 AM,68.0,51.8,56,29.86,10.0,SW,9.2,-,N/A,,Clear,230,2013-04-10 06:35:00
2:55 AM,68.0,51.8,56,29.86,10.0,SW,8.1,-,N/A,,Clear,220,2013-04-10 06:55:00
3:15 AM,68.0,51.8,56,29.86,10.0,SW,8.1,-,N/A,,Clear,230,2013-04-10 07:15:00
3:35 AM,68.0,51.8,56,29.86,10.0,SW,9.2,-,N/A,,Partly Cloudy,230,2013-04-10 07:35:00
3:55 AM,68.0,51.8,56,29.85,10.0,SW,9.2,-,N/A,,Partly Cloudy,230,2013-04-10 07:55:00
4:15 AM,66.2,51.8,60,29.85,10.0,WSW,10.4,18.4,N/A,,Clear,240,2013-04-10 08:15:00
4:35 AM,66.2,53.6,64,29.85,10.0,WSW,9.2,-,N/A,,Clear,240,2013-04-10 08:35:00
4:55 AM,66.2,53.6,64,29.85,10.0,WSW,6.9,-,N/A,,Clear,250,2013-04-10 08:55:00
5:15 AM,66.2,53.6,64,29.86,10.0,WSW,10.4,-,N/A,,Clear,250,2013-04-10 09:15:00
5:35 AM,66.2,53.6,64,29.88,10.0,WNW,10.4,-,N/A,,Clear,290,2013-04-10 09:35:00
5:55 AM,64.4,53.6,68,29.89,10.0,West,6.9,-,N/A,,Clear,280,2013-04-10 09:55:00
6:15 AM,64.4,51.8,64,29.90,10.0,NNW,5.8,-,N/A,,Clear,330,2013-04-10 10:15:00
6:35 AM,62.6,53.6,72,29.91,10.0,NW,4.6,-,N/A,,Clear,320,2013-04-10 10:35:00
6:55 AM,64.4,53.6,68,29.91,10.0,Calm,Calm,-,N/A,,Clear,0,2013-04-10 10:55:00
7:15 AM,64.4,53.6,68,29.93,10.0,NE,9.2,-,N/A,,Clear,40,2013-04-10 11:15:00
7:35 AM,60.8,46.4,59,29.94,10.0,NE,6.9,-,N/A,,Clear,50,2013-04-10 11:35:00
7:55 AM,60.8,44.6,55,29.94,10.0,ENE,5.8,-,N/A,,Clear,60,2013-04-10 11:55:00
8:15 AM,60.8,44.6,55,29.94,10.0,NE,3.5,-,N/A,,Clear,40,2013-04-10 12:15:00
8:35 AM,62.6,44.6,52,29.95,10.0,NNE,3.5,-,N/A,,Mostly Cloudy,30,2013-04-10 12:35:00
8:55 AM,62.6,44.6,52,29.95,10.0,NNE,3.5,-,N/A,,Overcast,30,2013-04-10 12:55:00
9:15 AM,62.6,44.6,52,29.95,10.0,Calm,Calm,-,N/A,,Overcast,0,2013-04-10 13:15:00
9:35 AM,64.4,46.4,52,29.95,10.0,ENE,3.5,-,N/A,,Overcast,60,2013-04-10 13:35:00
9:55 AM,64.4,46.4,52,29.94,10.0,SE,6.9,-,N/A,,Scattered Clouds,140,2013-04-10 13:55:00
10:15 AM,66.2,46.4,49,29.94,10.0,SSE,5.8,-,N/A,,Clear,160,2013-04-10 14:15:00
10:55 AM,69.8,48.2,46,29.94,10.0,East,5.8,-,N/A,,Clear,100,2013-04-10 14:55:00
11:15 AM,69.8,48.2,46,29.93,10.0,East,5.8,-,N/A,,Clear,90,2013-04-10 15:15:00
11:35 AM,71.6,50.0,46,29.93,10.0,ESE,5.8,-,N/A,,Clear,110,2013-04-10 15:35:00
11:55 AM,71.6,50.0,46,29.92,10.0,East,10.4,-,N/A,,Clear,90,2013-04-10 15:55:00
12:15 PM,68.0,48.2,49,29.92,10.0,East,10.4,-,N/A,,Clear,100,2013-04-10 16:15:00
12:35 PM,64.4,46.4,52,29.93,10.0,East,12.7,-,N/A,,Clear,90,2013-04-10 16:35:00
1:15 PM,60.8,46.4,59,29.94,10.0,East,13.8,-,N/A,,Mostly Cloudy,100,2013-04-10 17:15:00
1:35 PM,62.6,46.4,55,29.93,10.0,East,11.5,-,N/A,,Partly Cloudy,90,2013-04-10 17:35:00
1:55 PM,64.4,46.4,52,29.94,10.0,East,11.5,-,N/A,,Clear,90,2013-04-10 17:55:00
2:15 PM,64.4,46.4,52,29.93,10.0,ESE,11.5,-,N/A,,Clear,110,2013-04-10 18:15:00
2:35 PM,64.4,48.2,56,29.92,10.0,East,10.4,-,N/A,,Clear,90,2013-04-10 18:35:00
3:15 PM,62.6,48.2,59,29.91,10.0,East,13.8,-,N/A,,Scattered Clouds,100,2013-04-10 19:15:00
3:35 PM,62.6,48.2,59,29.90,10.0,SE,11.5,-,N/A,,Scattered Clouds,130,2013-04-10 19:35:00
3:55 PM,60.8,46.4,59,29.90,10.0,SE,12.7,-,N/A,,Partly Cloudy,130,2013-04-10 19:55:00
4:15 PM,60.8,46.4,59,29.89,10.0,SE,13.8,19.6,N/A,,Clear,130,2013-04-10 20:15:00
4:35 PM,57.2,46.4,67,29.90,10.0,SE,13.8,19.6,N/A,,Partly Cloudy,130,2013-04-10 20:35:00
4:55 PM,57.2,46.4,67,29.89,10.0,SE,13.8,-,N/A,,Scattered Clouds,130,2013-04-10 20:55:00
5:15 PM,55.4,46.4,72,29.88,10.0,SE,12.7,16.1,N/A,,Partly Cloudy,130,2013-04-10 21:15:00
5:35 PM,55.4,46.4,72,29.88,10.0,SE,9.2,-,N/A,,Clear,130,2013-04-10 21:35:00
5:55 PM,55.4,46.4,72,29.87,10.0,ESE,12.7,-,N/A,,Clear,120,2013-04-10 21:55:00
6:15 PM,55.4,46.4,72,29.86,10.0,ESE,11.5,-,N/A,,Partly Cloudy,120,2013-04-10 22:15:00
6:35 PM,55.4,46.4,72,29.84,10.0,SE,11.5,-,N/A,,Clear,130,2013-04-10 22:35:00
6:55 PM,55.4,46.4,72,29.83,10.0,SSE,10.4,-,N/A,,Clear,150,2013-04-10 22:55:00
7:15 PM,53.6,46.4,77,29.83,10.0,SE,5.8,-,N/A,,Clear,140,2013-04-10 23:15:00
7:35 PM,53.6,48.2,82,29.84,10.0,Calm,Calm,-,N/A,,Clear,0,2013-04-10 23:35:00
7:55 PM,57.2,48.2,72,29.90,10.0,NNE,12.7,25.3,N/A,,Mostly Cloudy,30,2013-04-10 23:55:00
8:15 PM,57.2,48.2,72,29.88,10.0,East,12.7,-,N/A,Thunderstorm,Overcast,80,2013-04-11 00:15:00
8:35 PM,55.4,51.8,88,29.86,10.0,East,15.0,-,N/A,Thunderstorm,Overcast,90,2013-04-11 00:35:00
8:55 PM,55.4,50.0,82,29.94,10.0,NNW,16.1,21.9,N/A,Thunderstorm,Overcast,330,2013-04-11 00:55:00
9:15 PM,55.4,51.8,88,29.90,7.0,East,10.4,-,0.14,Thunderstorm,Overcast,100,2013-04-11 01:15:00
9:35 PM,53.6,53.6,100,29.84,9.0,SE,6.9,18.4,0.25,Thunderstorm,Thunderstorm,130,2013-04-11 01:35:00
9:55 PM,57.2,55.4,94,29.81,10.0,ESE,5.8,-,0.25,,Overcast,110,2013-04-11 01:55:00
10:15 PM,55.4,53.6,94,29.79,10.0,SSE,8.1,-,N/A,,Scattered Clouds,150,2013-04-11 02:15:00
10:35 PM,53.6,51.8,94,29.81,10.0,West,6.9,-,N/A,,Scattered Clouds,270,2013-04-11 02:35:00
10:55 PM,60.8,57.2,88,29.94,10.0,WNW,16.1,26.5,0.02,,Overcast,300,2013-04-11 02:55:00
11:15 PM,60.8,57.2,88,29.93,9.0,NW,6.9,-,0.07,,Mostly Cloudy,310,2013-04-11 03:15:00
11:35 PM,59.0,59.0,100,29.92,7.0,West,3.5,-,0.09,,Mostly Cloudy,280,2013-04-11 03:35:00
11:55 PM,59.0,57.2,94,29.90,5.0,Calm,Calm,-,0.11,,Overcast,0,2013-04-11 03:55:00